Location: Ahausen
(50.4985°N, 8.2722°E)
Time: 07:27:57
(UTC+00:00)

Cosmos 1833 Rocket - Pass Details

Date: 18 September 2020
Orbit: 831 x 841 km, 71.0° (Epoch: 21 October)

Event Time Altitude Azimuth Distance (km) Brightness Sun altitude
Rises 21:43:06 0° 325° (NW) 3,408 6.9 -34.1°
Reaches altitude 10° 21:45:42 10° 318° (NW) 2,469 5.9 -34.3°
Enters shadow 21:49:22 32° 284° (WNW) 1,425 4.1 -34.5°
